METEOR-M2 2

Last updated on Wed Jul 02 2025 00:02:22 GMT+0000 (Coordinated Universal Time)

1 44387U 19038A 25182.55746329 .00000043 00000+0 38327-4 0 9999 2 44387 98.8751 160.4559 0000858 11.6688 348.4510 14.24213346311388
UTC large
Height (km)
Speed (km/s)
/
Latitude / Longitude
Inclination (degrees)
Orbital Period (minutes)
Azimuth
Elevation
Range (km)
Doppler Factor

Next 0 passes for location: London (51.5072 / 0.1276)

Sorry there are no passes over London.